User: anonymous   Login
Location: Unspecified
(0.0000°N, 0.0000°E)
Time: 09:53:52
(UTC+00:00)
Language:

N. Korean satellite - Orbit

View from above orbital plane
View from above orbital plane
View from above satellite
View from above satellite

Ground track
Ground track

The orbit data is extracted from the following two-line orbital elements,

1 39026U 12072A   16345.82891145  .00002493  00000-0  10122-3 0  9996
2 39026  97.2360   4.0992 0042941 122.3397 238.2010 15.24651674221282
Epoch (UTC): 10 December 2016 19:53:37
Eccentricity: 0.0042941
inclination: 97.2360°
perigee height: 462 km
apogee height: 521 km
right ascension of ascending node: 4.0992°
argument of perigee: 122.3397°
revolutions per day: 15.24651674
mean anomaly at epoch: 238.2010°
orbit number at epoch: 22128

The dashed part of the orbit path shows where the satellite is in the earth's shadow,  

DLR